Location: Newark
(48.1500°N, 2.9667°W)
Time: 03:19:57
(UTC+00:00)

Transit 2A - Pass Details

Date: 30 January 2020
Orbit: 600 x 959 km, 66.7° (Epoch: 16 February)

Event Time Altitude Azimuth Distance (km) Brightness Sun altitude
Rises 01:57:21 0° 330° (NNW) 2,939 - -54.3°
Reaches altitude 10° 01:59:59 10° 345° (NNW) 2,070 - -54.1°
Maximum altitude 02:03:45 23° 39° (NE) 1,437 - -53.6°
Drops below altitude 10° 02:07:45 10° 92° (E) 2,225 - -53.2°
Sets 02:10:41 0° 107° (ESE) 3,215 - -52.8°
